Regional Weather Roundup
Issued by NWS

Home | Current Version | Previous Version | Graphics & Text | Print | Product List | Glossary On
Versions: 1 2 3 4 5 6 7 8 9 10 11 12 13 14 15 16 17 18 19 20 21 22 23 24 25 26 27 28 29 30 31 32 33 34 35 36 37 38 39 40 41 42 43 44 45 46 47 48 49 50
000
ASUS43 KOAX 220902
RWRNE

WEATHER ROUNDUP FOR NEBRASKA
NATIONAL WEATHER SERVICE OMAHA NE
400 AM CDT SAT JUL 22 2017

NOTES: SATELLITE DATA IS BEING USED TO AUGMENT CLOUD COVER ABOVE
       12000 FEET.
       "FAIR" INDICATES FEW OR NO CLOUDS BELOW 12,000 FEET WITH NO
       SIGNIFICANT WEATHER AND/OR OBSTRUCTIONS TO VISIBILITY.


NEZ001>004-019>022-054>056-221000-
NEBRASKA PANHANDLE

CITY           SKY/WX    TMP DP  RH WIND       PRES   REMARKS
SCOTTSBLUFF    PTCLDY    74  52  46 CALM      30.08F
ALLIANCE       CLOUDY    68  53  58 W7        30.08S
CHADRON        PTCLDY    65  53  65 CALM      30.01S
GORDON         PTSUNNY   67  62  83 CALM      30.02S
KIMBALL        CLOUDY    65  58  80 W7        30.12S
SIDNEY         CLOUDY    72  53  51 W10       30.05F
$$

NEZ057>060-069>072-079>082-221000-
SOUTHWEST NEBRASKA

CITY           SKY/WX    TMP DP  RH WIND       PRES   REMARKS
NORTH PLATTE   CLOUDY    81  54  39 NW17      29.94S
IMPERIAL       MOCLDY    68  61  78 N10       29.94F
LEXINGTON      CLOUDY    78  58  49 NW17G24   29.89S
MCCOOK         MOCLDY    78  57  48 N16       29.88S
OGALLALA       CLOUDY    78  54  43 N25       29.94F
$$

NEZ005>010-023>029-035>040-094-221000-
NORTH CENTRAL NEBRASKA

CITY           SKY/WX    TMP DP  RH WIND       PRES   REMARKS
VALENTINE      PTCLDY    71  55  56 NW6       29.94F
AINSWORTH      PTCLDY    71  62  73 NW6       29.93S
BROKEN BOW     CLOUDY    76  68  76 NW12      29.89S
O`NEILL        PTCLDY    73  70  91 N7        29.87R
ORD            CLOUDY    74  68  81 NW12      29.84S
THEDFORD       CLOUDY    73  60  63 W7        29.96S
$$

NEZ041-046>049-061>064-073>077-083>087-221000-
SOUTH CENTRAL NEBRASKA

CITY           SKY/WX    TMP DP  RH WIND       PRES   REMARKS
GRAND ISLAND   PTCLDY    72  69  90 W5        29.83R
AURORA         CLEAR     72  69  92 W5        29.81R
HASTINGS       PTCLDY    75  70  84 N5        29.83R
HEBRON         CLEAR     77  63  61 W3        29.80R
HOLDREGE       CLOUDY    73  65  75 N5        29.88R
KEARNEY        PTCLDY    78  69  73 NW9       29.87R
YORK           CLEAR     73  70  88 N3        29.81R
$$

NEZ011>018-030>034-042>045-221000-
NORTHEAST NEBRASKA

CITY           SKY/WX    TMP DP  RH WIND       PRES   REMARKS
NORFOLK        CLOUDY    74  70  87 N6        29.81R
ALBION         PTCLDY    69  67  94 NW5       29.82F
BLAIR          LGT RAIN  80  78  94 N7        29.76S
COLUMBUS       PTCLDY    74  67  78 W6        29.79S
FREMONT        CLOUDY    79  78  96 N6        29.77R FOG
TEKAMAH        CLOUDY    78  76  93 N12       29.76R FOG
WAYNE          FOG       77  76  99 NE8       29.81R VSB 1/2
$$

NEZ050>053-065>068-078-088>093-221000-
SOUTHEAST NEBRASKA

CITY           SKY/WX    TMP DP  RH WIND       PRES   REMARKS
LINCOLN        PTCLDY    81  66  60 W5        29.78R
OMAHA EPPLEY   MOCLDY    83  69  62 N7        29.74R
BEATRICE       CLEAR     82  66  60 W6        29.78R
NEBRASKA CITY  CLEAR     82  69  64 SW9       29.75R
PLATTSMOUTH    PTCLDY    79  68  69 NW6       29.76R
$$

NEZ044-045-051>053-067-221000-
OMAHA AREA

CITY           SKY/WX    TMP DP  RH WIND       PRES   REMARKS
OMAHA EPPLEY   MOCLDY    83  69  62 N7        29.74R
BLAIR          LGT RAIN  80  78  94 N7        29.76S
FREMONT        CLOUDY    79  78  96 N6        29.77R FOG
MILLARD        PTCLDY    87  68  53 W6        29.74R HX  90
OFFUTT AFB     CLOUDY    77  67  71 W5        29.74R
PLATTSMOUTH    PTCLDY    79  68  69 NW6       29.76R
WAHOO          FAIR      78  76  95 NW3       29.76R
$$




USA.gov is the U.S. government's official web portal to all federal, state and local government web resources and services.